| time (UTC) | temp F | wind direction | speed MPH | gust MPH | rain 1hr in | rain 24hr in | rain mn in | humidity % | barometer mb |
| 20260831214021 | 76 | 360 | 4.0 | 8.0 | 0.00 | 0.00 | 0.00 | 21 | 925.8 |
| 20260831213518 | 75 | 360 | 3.0 | 10.0 | 0.00 | 0.00 | 0.00 | 21 | 925.9 |
| 20260831213051 | 75 | 360 | 3.0 | 11.0 | 0.00 | 0.00 | 0.00 | 21 | 926.1 |
| 20260831212520 | 76 | 360 | 5.0 | 12.0 | 0.00 | 0.00 | 0.00 | 20 | 925.9 |
| 20260831212020 | 76 | 360 | 5.0 | 12.0 | 0.00 | 0.00 | 0.00 | 19 | 926.0 |
| 20260831211601 | 77 | 360 | 4.0 | 15.0 | 0.00 | 0.00 | 0.00 | 20 | 926.0 |
| 20260831211018 | 76 | 360 | 4.0 | 15.0 | 0.00 | 0.00 | 0.00 | 21 | 926.0 |
| 20260831210520 | 76 | 360 | 3.0 | 9.0 | 0.00 | 0.00 | 0.00 | 21 | 926.3 |
| 20260831210044 | 76 | 360 | 3.0 | 9.0 | 0.00 | 0.00 | 0.00 | 20 | 926.4 |
| 20260831205518 | 75 | 360 | 5.0 | 13.0 | 0.00 | 0.00 | 0.00 | 21 | 926.4 |
| 20260831205019 | 75 | 360 | 6.0 | 13.0 | 0.00 | 0.00 | 0.00 | 21 | 926.3 |
| 20260831204557 | 75 | 360 | 3.0 | 13.0 | 0.00 | 0.00 | 0.00 | 21 | 926.4 |
| 20260831204017 | 75 | 360 | 5.0 | 12.0 | 0.00 | 0.00 | 0.00 | 22 | 926.5 |
| 20260831203519 | 74 | 360 | 6.0 | 13.0 | 0.00 | 0.00 | 0.00 | 22 | 926.6 |
| 20260831203052 | 74 | 360 | 5.0 | 13.0 | 0.00 | 0.00 | 0.00 | 22 | 926.7 |
| 20260831202516 | 74 | 360 | 4.0 | 12.0 | 0.00 | 0.00 | 0.00 | 23 | 926.7 |
| 20260831202016 | 73 | 360 | 7.0 | 13.0 | 0.00 | 0.00 | 0.00 | 22 | 926.9 |
| 20260831201550 | 74 | 360 | 3.0 | 14.0 | 0.00 | 0.00 | 0.00 | 23 | 926.9 |
| 20260831201020 | 73 | 360 | 6.0 | 14.0 | 0.00 | 0.00 | 0.00 | 23 | 927.0 |
| 20260831200518 | 74 | 360 | 7.0 | 12.0 | 0.00 | 0.00 | 0.00 | 23 | 927.0 |
| 20260831200054 | 73 | 360 | 2.0 | 12.0 | 0.00 | 0.00 | 0.00 | 25 | 926.9 |
| 20260831195517 | 72 | 360 | 6.0 | 12.0 | 0.00 | 0.00 | 0.00 | 24 | 927.0 |
| 20260831195018 | 72 | 360 | 2.0 | 10.0 | 0.00 | 0.00 | 0.00 | 23 | 927.0 |
| 20260831194554 | 72 | 360 | 5.0 | 11.0 | 0.00 | 0.00 | 0.00 | 23 | 927.1 |
| 20260831194023 | 73 | 360 | 7.0 | 11.0 | 0.00 | 0.00 | 0.00 | 24 | 927.0 |
| 20260831193522 | 72 | 360 | 6.0 | 11.0 | 0.00 | 0.00 | 0.00 | 24 | 927.1 |
| 20260831193048 | 72 | 360 | 5.0 | 10.0 | 0.00 | 0.00 | 0.00 | 24 | 927.1 |
| 20260831192517 | 71 | 360 | 2.0 | 11.0 | 0.00 | 0.00 | 0.00 | 25 | 927.2 |
| 20260831192022 | 71 | 360 | 5.0 | 11.0 | 0.00 | 0.00 | 0.00 | 25 | 927.2 |
| 20260831191556 | 71 | 360 | 5.0 | 9.0 | 0.00 | 0.00 | 0.00 | 25 | 927.3 |
| 20260831191018 | 70 | 360 | 1.0 | 11.0 | 0.00 | 0.00 | 0.00 | 26 | 927.3 |
| 20260831190518 | 71 | 360 | 7.0 | 11.0 | 0.00 | 0.00 | 0.00 | 24 | 927.5 |
| 20260831190106 | 70 | 360 | 3.0 | 11.0 | 0.00 | 0.00 | 0.00 | 25 | 927.5 |
| 20260831185518 | 70 | 360 | 6.0 | 11.0 | 0.00 | 0.00 | 0.00 | 27 | 927.5 |
| 20260831185024 | 70 | 360 | 2.0 | 12.0 | 0.00 | 0.00 | 0.00 | 26 | 927.5 |
| 20260831184549 | 70 | 360 | 8.0 | 12.0 | 0.00 | 0.00 | 0.00 | 26 | 927.5 |
| 20260831184019 | 70 | 360 | 6.0 | 11.0 | 0.00 | 0.00 | 0.00 | 26 | 927.7 |
| 20260831183523 | 70 | 360 | 2.0 | 8.0 | 0.00 | 0.00 | 0.00 | 26 | 927.7 |
| 20260831183100 | 70 | 360 | 3.0 | 11.0 | 0.00 | 0.00 | 0.00 | 27 | 927.8 |
| 20260831182517 | 70 | 360 | 5.0 | 11.0 | 0.00 | 0.00 | 0.00 | 27 | 927.8 |
| 20260831182018 | 70 | 360 | 0.0 | 9.0 | 0.00 | 0.00 | 0.00 | 28 | 927.8 |
| 20260831181559 | 69 | 360 | 4.0 | 9.0 | 0.00 | 0.00 | 0.00 | 27 | 928.1 |
| 20260831181016 | 69 | 360 | 2.0 | 8.0 | 0.00 | 0.00 | 0.00 | 27 | 928.0 |
| 20260831180520 | 69 | 360 | 2.0 | 8.0 | 0.00 | 0.00 | 0.00 | 28 | 928.1 |
| 20260831180105 | 69 | 360 | 4.0 | 8.0 | 0.00 | 0.00 | 0.00 | 29 | 927.9 |
| 20260831175520 | 68 | 360 | 1.0 | 8.0 | 0.00 | 0.00 | 0.00 | 29 | 927.8 |
| 20260831175019 | 68 | 360 | 5.0 | 8.0 | 0.00 | 0.00 | 0.00 | 29 | 928.0 |
| 20260831174549 | 67 | 360 | 2.0 | 9.0 | 0.00 | 0.00 | 0.00 | 29 | 928.0 |
| 20260831174022 | 67 | 360 | 3.0 | 9.0 | 0.00 | 0.00 | 0.00 | 30 | 928.1 |
| 20260831173519 | 68 | 360 | 4.0 | 9.0 | 0.00 | 0.00 | 0.00 | 30 | 928.2 |
| 20260831173058 | 67 | 360 | 0.0 | 6.0 | 0.00 | 0.00 | 0.00 | 31 | 928.0 |
| 20260831172519 | 67 | 360 | 4.0 | 10.0 | 0.00 | 0.00 | 0.00 | 31 | 928.1 |
| 20260831172024 | 67 | 360 | 6.0 | 10.0 | 0.00 | 0.00 | 0.00 | 33 | 928.1 |
| 20260831171553 | 66 | 360 | 4.0 | 10.0 | 0.00 | 0.00 | 0.00 | 32 | 927.9 |
| 20260831171017 | 66 | 360 | 6.0 | 10.0 | 0.00 | 0.00 | 0.00 | 33 | 928.0 |
| 20260831170519 | 66 | 360 | 1.0 | 9.0 | 0.00 | 0.00 | 0.00 | 34 | 928.0 |
| 20260831170104 | 66 | 360 | 3.0 | 13.0 | 0.00 | 0.00 | 0.00 | 33 | 928.1 |
| 20260831165523 | 66 | 360 | 9.0 | 13.0 | 0.00 | 0.00 | 0.00 | 32 | 927.9 |
| 20260831165020 | 66 | 360 | 5.0 | 11.0 | 0.00 | 0.00 | 0.00 | 33 | 928.0 |
| 20260831164625 | 66 | 360 | 6.0 | 13.0 | 0.00 | 0.00 | 0.00 | 33 | 928.0 |
| 20260831164019 | 65 | 360 | 6.0 | 13.0 | 0.00 | 0.00 | 0.00 | 32 | 928.1 |
| 20260831163520 | 65 | 360 | 9.0 | 14.0 | 0.00 | 0.00 | 0.00 | 32 | 927.9 |
| 20260831163102 | 65 | 360 | 8.0 | 17.0 | 0.00 | 0.00 | 0.00 | 33 | 927.9 |
| 20260831162521 | 65 | 360 | 12.0 | 19.0 | 0.00 | 0.00 | 0.00 | 33 | 927.7 |
| 20260831162022 | 65 | 360 | 12.0 | 19.0 | 0.00 | 0.00 | 0.00 | 32 | 927.7 |
| 20260831161619 | 64 | 360 | 12.0 | 16.0 | 0.00 | 0.00 | 0.00 | 33 | 927.6 |
| 20260831161020 | 64 | 360 | 11.0 | 16.0 | 0.00 | 0.00 | 0.00 | 32 | 927.6 |
| 20260831160517 | 64 | 360 | 12.0 | 15.0 | 0.00 | 0.00 | 0.00 | 33 | 927.5 |
| 20260831160109 | 64 | 360 | 9.0 | 13.0 | 0.00 | 0.00 | 0.00 | 34 | 927.8 |
| 20260831155523 | 64 | 360 | 7.0 | 13.0 | 0.00 | 0.00 | 0.00 | 35 | 927.8 |
| 20260831155024 | 63 | 360 | 8.0 | 16.0 | 0.00 | 0.00 | 0.00 | 35 | 927.7 |
| 20260831154632 | 63 | 360 | 9.0 | 16.0 | 0.00 | 0.00 | 0.00 | 35 | 927.7 |
| 20260831154028 | 63 | 360 | 10.0 | 16.0 | 0.00 | 0.00 | 0.00 | 35 | 927.8 |
| 20260831153520 | 62 | 360 | 10.0 | 16.0 | 0.00 | 0.00 | 0.00 | 36 | 927.9 |
| 20260831153104 | 62 | 360 | 10.0 | 16.0 | 0.00 | 0.00 | 0.00 | 36 | 927.8 |
| 20260831152523 | 62 | 360 | 9.0 | 16.0 | 0.00 | 0.00 | 0.00 | 37 | 927.4 |
| 20260831152020 | 62 | 360 | 10.0 | 16.0 | 0.00 | 0.00 | 0.00 | 37 | 927.4 |
| 20260831151602 | 61 | 360 | 10.0 | 15.0 | 0.00 | 0.00 | 0.00 | 38 | 927.3 |
| 20260831151019 | 61 | 360 | 11.0 | 15.0 | 0.00 | 0.00 | 0.00 | 38 | 927.4 |
| 20260831150524 | 60 | 360 | 9.0 | 17.0 | 0.00 | 0.00 | 0.00 | 39 | 927.5 |
| 20260831150107 | 60 | 360 | 12.0 | 17.0 | 0.00 | 0.00 | 0.00 | 39 | 927.3 |
| 20260831145520 | 60 | 360 | 11.0 | 17.0 | 0.00 | 0.00 | 0.00 | 40 | 927.2 |
| 20260831145018 | 59 | 360 | 10.0 | 15.0 | 0.00 | 0.00 | 0.00 | 41 | 927.3 |
| 20260831144622 | 59 | 360 | 10.0 | 14.0 | 0.00 | 0.00 | 0.00 | 41 | 927.2 |
| 20260831144025 | 58 | 360 | 10.0 | 15.0 | 0.00 | 0.00 | 0.00 | 42 | 927.1 |
| 20260831143521 | 58 | 360 | 10.0 | 15.0 | 0.00 | 0.00 | 0.00 | 43 | 927.1 |
| 20260831143106 | 58 | 360 | 9.0 | 15.0 | 0.00 | 0.00 | 0.00 | 43 | 927.1 |
| 20260831142521 | 57 | 360 | 9.0 | 14.0 | 0.00 | 0.00 | 0.00 | 44 | 927.1 |
| 20260831142020 | 56 | 360 | 6.0 | 13.0 | 0.00 | 0.00 | 0.00 | 46 | 927.1 |
| 20260831141628 | 56 | 360 | 7.0 | 13.0 | 0.00 | 0.00 | 0.00 | 46 | 927.1 |
| 20260831141019 | 55 | 360 | 7.0 | 13.0 | 0.00 | 0.00 | 0.00 | 47 | 927.2 |
| 20260831140526 | 54 | 360 | 9.0 | 13.0 | 0.00 | 0.00 | 0.00 | 48 | 927.1 |
| 20260831140106 | 54 | 360 | 7.0 | 11.0 | 0.00 | 0.00 | 0.00 | 49 | 927.1 |
| 20260831135517 | 53 | 360 | 6.0 | 12.0 | 0.00 | 0.00 | 0.00 | 50 | 926.8 |
| 20260831135019 | 53 | 360 | 8.0 | 13.0 | 0.00 | 0.00 | 0.00 | 50 | 926.8 |
| 20260831134603 | 52 | 360 | 9.0 | 13.0 | 0.00 | 0.00 | 0.00 | 51 | 926.9 |
| 20260831134019 | 52 | 360 | 10.0 | 12.0 | 0.00 | 0.00 | 0.00 | 52 | 926.7 |
| 20260831133520 | 51 | 360 | 8.0 | 11.0 | 0.00 | 0.00 | 0.00 | 53 | 926.8 |
| 20260831133100 | 50 | 360 | 8.0 | 11.0 | 0.00 | 0.00 | 0.00 | 54 | 926.7 |
| 20260831132527 | 50 | 360 | 7.0 | 11.0 | 0.00 | 0.00 | 0.00 | 55 | 926.5 |
| 20260831132017 | 49 | 360 | 8.0 | 12.0 | 0.00 | 0.00 | 0.00 | 55 | 926.4 |
| 20260831131610 | 49 | 360 | 9.0 | 12.0 | 0.00 | 0.00 | 0.00 | 56 | 926.3 |
| 20260831131016 | 48 | 360 | 8.0 | 11.0 | 0.00 | 0.00 | 0.00 | 56 | 926.3 |
| 20260831130520 | 48 | 360 | 7.0 | 10.0 | 0.00 | 0.00 | 0.00 | 56 | 926.3 |
| 20260831130129 | 48 | 360 | 7.0 | 11.0 | 0.00 | 0.00 | 0.00 | 56 | 926.4 |
| 20260831125525 | 49 | 360 | 8.0 | 12.0 | 0.00 | 0.00 | 0.00 | 55 | 926.2 |
| 20260831125021 | 49 | 360 | 9.0 | 12.0 | 0.00 | 0.00 | 0.00 | 53 | 926.1 |
| 20260831124616 | 50 | 360 | 9.0 | 13.0 | 0.00 | 0.00 | 0.00 | 52 | 926.1 |
| 20260831124027 | 51 | 360 | 8.0 | 14.0 | 0.00 | 0.00 | 0.00 | 51 | 926.1 |
| 20260831123520 | 51 | 360 | 9.0 | 14.0 | 0.00 | 0.00 | 0.00 | 51 | 926.2 |
| 20260831123059 | 51 | 360 | 8.0 | 15.0 | 0.00 | 0.00 | 0.00 | 51 | 926.2 |
| 20260831122524 | 51 | 360 | 10.0 | 15.0 | 0.00 | 0.00 | 0.00 | 51 | 926.2 |
| 20260831122024 | 51 | 360 | 8.0 | 13.0 | 0.00 | 0.00 | 0.00 | 51 | 926.2 |
| 20260831121624 | 51 | 360 | 9.0 | 13.0 | 0.00 | 0.00 | 0.00 | 51 | 926.1 |
| 20260831121027 | 51 | 360 | 9.0 | 13.0 | 0.00 | 0.00 | 0.00 | 50 | 926.2 |
| 20260831120520 | 52 | 360 | 9.0 | 15.0 | 0.00 | 0.00 | 0.00 | 50 | 926.3 |
| 20260831120123 | 52 | 360 | 10.0 | 17.0 | 0.00 | 0.00 | 0.00 | 49 | 926.1 |
| 20260831115524 | 52 | 360 | 11.0 | 17.0 | 0.00 | 0.00 | 0.00 | 50 | 925.9 |
| 20260831115017 | 52 | 360 | 12.0 | 16.0 | 0.00 | 0.00 | 0.00 | 50 | 925.9 |
| 20260831114625 | 51 | 360 | 8.0 | 12.0 | 0.00 | 0.00 | 0.00 | 51 | 925.9 |
| 20260831114020 | 51 | 360 | 9.0 | 12.0 | 0.00 | 0.00 | 0.00 | 51 | 926.1 |
| 20260831113519 | 51 | 360 | 8.0 | 12.0 | 0.00 | 0.00 | 0.00 | 51 | 925.9 |
| 20260831113101 | 52 | 360 | 7.0 | 12.0 | 0.00 | 0.00 | 0.00 | 49 | 925.9 |
| 20260831112517 | 52 | 360 | 8.0 | 13.0 | 0.00 | 0.00 | 0.00 | 49 | 925.7 |
| 20260831112018 | 52 | 360 | 10.0 | 13.0 | 0.00 | 0.00 | 0.00 | 49 | 925.6 |
| 20260831111612 | 53 | 360 | 9.0 | 14.0 | 0.00 | 0.00 | 0.00 | 48 | 925.6 |
| 20260831111023 | 53 | 360 | 9.0 | 15.0 | 0.00 | 0.00 | 0.00 | 48 | 925.7 |
| 20260831110521 | 53 | 360 | 9.0 | 15.0 | 0.00 | 0.00 | 0.00 | 48 | 925.6 |
| 20260831110114 | 53 | 360 | 10.0 | 16.0 | 0.00 | 0.00 | 0.00 | 48 | 925.7 |
| 20260831105519 | 53 | 360 | 10.0 | 16.0 | 0.00 | 0.00 | 0.00 | 48 | 925.7 |
| 20260831105025 | 53 | 360 | 8.0 | 12.0 | 0.00 | 0.00 | 0.00 | 48 | 925.6 |
| 20260831104604 | 53 | 360 | 6.0 | 13.0 | 0.00 | 0.00 | 0.00 | 48 | 925.7 |
| 20260831104026 | 53 | 360 | 9.0 | 14.0 | 0.00 | 0.00 | 0.00 | 47 | 925.6 |
| 20260831103522 | 53 | 360 | 9.0 | 15.0 | 0.00 | 0.00 | 0.00 | 47 | 925.5 |
| 20260831103104 | 53 | 360 | 10.0 | 16.0 | 0.00 | 0.00 | 0.00 | 47 | 925.2 |
| 20260831102520 | 54 | 360 | 11.0 | 18.0 | 0.00 | 0.00 | 0.00 | 47 | 925.3 |
| 20260831102021 | 54 | 360 | 10.0 | 18.0 | 0.00 | 0.00 | 0.00 | 46 | 925.2 |
| 20260831101624 | 54 | 360 | 11.0 | 18.0 | 0.00 | 0.00 | 0.00 | 46 | 925.2 |
| 20260831101021 | 54 | 360 | 12.0 | 18.0 | 0.00 | 0.00 | 0.00 | 46 | 925.1 |
| 20260831100523 | 54 | 360 | 11.0 | 18.0 | 0.00 | 0.00 | 0.00 | 46 | 925.2 |
| 20260831100130 | 54 | 360 | 11.0 | 19.0 | 0.00 | 0.00 | 0.00 | 46 | 925.0 |
| 20260831095520 | 54 | 360 | 13.0 | 18.0 | 0.00 | 0.00 | 0.00 | 46 | 925.0 |
| 20260831095020 | 54 | 360 | 11.0 | 18.0 | 0.00 | 0.00 | 0.00 | 46 | 924.9 |
| 20260831094623 | 54 | 360 | 11.0 | 17.0 | 0.00 | 0.00 | 0.00 | 46 | 925.0 |
| 20260831094021 | 54 | 360 | 12.0 | 18.0 | 0.00 | 0.00 | 0.00 | 46 | 924.9 |
| 20260831093521 | 54 | 360 | 12.0 | 18.0 | 0.00 | 0.00 | 0.00 | 46 | 924.9 |
| 20260831093108 | 54 | 360 | 12.0 | 19.0 | 0.00 | 0.00 | 0.00 | 46 | 924.7 |
| 20260831092520 | 54 | 360 | 12.0 | 19.0 | 0.00 | 0.00 | 0.00 | 46 | 924.6 |
| 20260831092019 | 54 | 360 | 13.0 | 20.0 | 0.00 | 0.00 | 0.00 | 46 | 924.6 |
| 20260831091604 | 54 | 360 | 14.0 | 20.0 | 0.00 | 0.00 | 0.00 | 46 | 924.7 |
| 20260831091017 | 54 | 360 | 11.0 | 17.0 | 0.00 | 0.00 | 0.00 | 46 | 924.7 |
| 20260831090521 | 54 | 360 | 11.0 | 17.0 | 0.00 | 0.00 | 0.00 | 46 | 924.8 |
| 20260831090127 | 54 | 360 | 10.0 | 16.0 | 0.00 | 0.00 | 0.00 | 46 | 924.7 |
| 20260831085517 | 54 | 360 | 9.0 | 16.0 | 0.00 | 0.00 | 0.00 | 47 | 924.7 |
| 20260831085230 | 54 | 360 | 9.0 | 16.0 | 0.00 | 0.00 | 0.00 | 47 | 924.6 |
| 20260831084542 | 53 | 360 | 8.0 | 12.0 | 0.00 | 0.00 | 0.00 | 48 | 924.6 |
| 20260831084016 | 54 | 360 | 7.0 | 15.0 | 0.00 | 0.00 | 0.00 | 47 | 924.6 |
| 20260831083517 | 54 | 360 | 9.0 | 21.0 | 0.00 | 0.00 | 0.00 | 47 | 924.7 |
| 20260831083044 | 54 | 360 | 9.0 | 21.0 | 0.00 | 0.00 | 0.00 | 46 | 924.5 |
| 20260831082518 | 54 | 360 | 11.0 | 17.0 | 0.00 | 0.00 | 0.00 | 47 | 924.3 |
| 20260831082021 | 54 | 360 | 12.0 | 17.0 | 0.00 | 0.00 | 0.00 | 47 | 924.2 |
| 20260831081543 | 54 | 360 | 10.0 | 18.0 | 0.00 | 0.00 | 0.00 | 47 | 924.1 |
| 20260831081016 | 54 | 360 | 11.0 | 18.0 | 0.00 | 0.00 | 0.00 | 46 | 924.3 |
| 20260831080519 | 54 | 360 | 10.0 | 17.0 | 0.00 | 0.00 | 0.00 | 46 | 924.1 |
| 20260831080042 | 54 | 360 | 10.0 | 17.0 | 0.00 | 0.00 | 0.00 | 46 | 924.3 |
| 20260831075519 | 54 | 360 | 11.0 | 17.0 | 0.00 | 0.00 | 0.00 | 46 | 924.3 |
| 20260831075020 | 54 | 360 | 12.0 | 17.0 | 0.00 | 0.00 | 0.00 | 46 | 924.1 |
| 20260831074545 | 54 | 360 | 11.0 | 19.0 | 0.00 | 0.00 | 0.00 | 46 | 924.1 |
| 20260831074017 | 54 | 360 | 12.0 | 18.0 | 0.00 | 0.00 | 0.00 | 46 | 924.1 |
| 20260831073517 | 54 | 360 | 13.0 | 19.0 | 0.00 | 0.00 | 0.00 | 46 | 924.1 |
| 20260831073047 | 54 | 360 | 12.0 | 19.0 | 0.00 | 0.00 | 0.00 | 46 | 924.0 |
| 20260831072517 | 54 | 360 | 12.0 | 18.0 | 0.00 | 0.00 | 0.00 | 46 | 923.8 |
| 20260831072016 | 54 | 360 | 11.0 | 17.0 | 0.00 | 0.00 | 0.00 | 46 | 924.0 |
| 20260831071541 | 55 | 360 | 11.0 | 22.0 | 0.00 | 0.00 | 0.00 | 45 | 924.0 |
| 20260831071017 | 55 | 360 | 13.0 | 19.0 | 0.00 | 0.00 | 0.00 | 45 | 924.1 |
| 20260831070517 | 55 | 360 | 13.0 | 19.0 | 0.00 | 0.00 | 0.00 | 45 | 924.1 |
| 20260831070048 | 55 | 360 | 14.0 | 18.0 | 0.00 | 0.00 | 0.00 | 45 | 924.2 |
| 20260831065521 | 54 | 360 | 11.0 | 17.0 | 0.00 | 0.00 | 0.00 | 46 | 924.2 |
| 20260831065016 | 54 | 360 | 13.0 | 18.0 | 0.00 | 0.00 | 0.00 | 46 | 924.2 |
| 20260831064544 | 54 | 360 | 11.0 | 18.0 | 0.00 | 0.00 | 0.00 | 46 | 924.1 |
| 20260831064018 | 54 | 360 | 11.0 | 17.0 | 0.00 | 0.00 | 0.00 | 46 | 924.2 |
| 20260831063517 | 54 | 360 | 12.0 | 17.0 | 0.00 | 0.00 | 0.00 | 46 | 924.1 |
| 20260831063042 | 53 | 360 | 12.0 | 18.0 | 0.00 | 0.00 | 0.00 | 47 | 924.2 |
| 20260831062516 | 53 | 360 | 11.0 | 18.0 | 0.00 | 0.00 | 0.00 | 47 | 924.6 |
| 20260831062021 | 53 | 360 | 11.0 | 16.0 | 0.00 | 0.00 | 0.00 | 46 | 924.6 |
| 20260831061541 | 54 | 360 | 12.0 | 18.0 | 0.00 | 0.00 | 0.00 | 46 | 924.5 |
| 20260831061017 | 54 | 360 | 12.0 | 19.0 | 0.00 | 0.00 | 0.00 | 46 | 924.5 |
| 20260831060518 | 54 | 360 | 13.0 | 18.0 | 0.00 | 0.00 | 0.00 | 46 | 924.5 |
| 20260831060050 | 54 | 360 | 12.0 | 17.0 | 0.00 | 0.00 | 0.00 | 47 | 924.5 |
| 20260831055519 | 53 | 360 | 11.0 | 16.0 | 0.00 | 0.00 | 0.00 | 47 | 924.5 |
| 20260831055017 | 53 | 360 | 10.0 | 16.0 | 0.00 | 0.00 | 0.00 | 48 | 924.7 |
| 20260831054543 | 53 | 360 | 11.0 | 16.0 | 0.00 | 0.00 | 0.00 | 49 | 924.5 |
| 20260831054018 | 52 | 360 | 10.0 | 16.0 | 0.00 | 0.00 | 0.00 | 50 | 924.6 |
| 20260831053518 | 52 | 360 | 8.0 | 13.0 | 0.00 | 0.00 | 0.00 | 50 | 924.4 |
| 20260831053048 | 52 | 360 | 8.0 | 14.0 | 0.00 | 0.00 | 0.00 | 50 | 924.2 |
| 20260831052517 | 52 | 360 | 10.0 | 14.0 | 0.00 | 0.00 | 0.00 | 50 | 924.0 |
| 20260831052021 | 52 | 360 | 7.0 | 15.0 | 0.00 | 0.00 | 0.00 | 51 | 924.1 |
| 20260831051544 | 52 | 360 | 9.0 | 15.0 | 0.00 | 0.00 | 0.00 | 51 | 924.0 |
| 20260831051016 | 52 | 360 | 9.0 | 15.0 | 0.00 | 0.00 | 0.00 | 52 | 924.0 |
| 20260831050518 | 52 | 360 | 9.0 | 14.0 | 0.00 | 0.00 | 0.00 | 52 | 924.0 |
| 20260831050053 | 52 | 360 | 10.0 | 14.0 | 0.00 | 0.00 | 0.00 | 52 | 924.5 |
| 20260831045518 | 52 | 360 | 8.0 | 14.0 | 0.00 | 0.00 | 0.00 | 52 | 924.6 |
| 20260831045015 | 52 | 360 | 9.0 | 14.0 | 0.00 | 0.00 | 0.00 | 52 | 924.7 |
| 20260831044604 | 51 | 360 | 9.0 | 13.0 | 0.00 | 0.00 | 0.00 | 53 | 924.7 |
| 20260831044019 | 52 | 360 | 6.0 | 10.0 | 0.00 | 0.00 | 0.00 | 52 | 925.0 |
| 20260831043519 | 52 | 360 | 7.0 | 12.0 | 0.00 | 0.00 | 0.00 | 52 | 924.8 |
| 20260831043057 | 52 | 360 | 9.0 | 12.0 | 0.00 | 0.00 | 0.00 | 52 | 924.9 |
| 20260831042516 | 52 | 360 | 6.0 | 13.0 | 0.00 | 0.00 | 0.00 | 51 | 924.9 |
| 20260831042016 | 53 | 360 | 8.0 | 14.0 | 0.00 | 0.00 | 0.00 | 51 | 925.0 |
| 20260831041559 | 53 | 360 | 8.0 | 14.0 | 0.00 | 0.00 | 0.00 | 50 | 924.7 |
| 20260831041019 | 54 | 360 | 7.0 | 17.0 | 0.00 | 0.00 | 0.00 | 48 | 924.7 |
| 20260831040519 | 54 | 360 | 8.0 | 17.0 | 0.00 | 0.00 | 0.00 | 47 | 924.7 |
| 20260831040051 | 55 | 360 | 11.0 | 20.0 | 0.00 | 0.00 | 0.00 | 46 | 924.5 |
| 20260831035517 | 56 | 360 | 14.0 | 25.0 | 0.00 | 0.00 | 0.00 | 45 | 924.8 |
| 20260831035018 | 57 | 360 | 17.0 | 25.0 | 0.00 | 0.00 | 0.00 | 43 | 924.9 |
| 20260831034557 | 57 | 360 | 14.0 | 25.0 | 0.00 | 0.00 | 0.00 | 40 | 925.0 |
| 20260831034016 | 57 | 360 | 14.0 | 25.0 | 0.00 | 0.00 | 0.00 | 40 | 924.6 |
| 20260831033518 | 57 | 360 | 14.0 | 21.0 | 0.00 | 0.00 | 0.00 | 40 | 924.4 |
| 20260831033052 | 57 | 360 | 16.0 | 24.0 | 0.00 | 0.00 | 0.00 | 40 | 924.3 |
| 20260831032519 | 57 | 360 | 16.0 | 24.0 | 0.00 | 0.00 | 0.00 | 40 | 924.2 |
| 20260831032019 | 56 | 360 | 12.0 | 21.0 | 0.00 | 0.00 | 0.00 | 41 | 924.1 |
| 20260831031555 | 56 | 360 | 13.0 | 21.0 | 0.00 | 0.00 | 0.00 | 41 | 923.8 |
| 20260831031016 | 56 | 360 | 13.0 | 19.0 | 0.00 | 0.00 | 0.00 | 41 | 924.0 |
| 20260831030517 | 56 | 360 | 11.0 | 18.0 | 0.00 | 0.00 | 0.00 | 42 | 923.8 |
| 20260831025517 | 56 | 360 | 11.0 | 19.0 | 0.00 | 0.00 | 0.00 | 42 | 923.7 |
| 20260831025019 | 56 | 360 | 11.0 | 19.0 | 0.00 | 0.00 | 0.00 | 42 | 923.5 |
| 20260831024600 | 56 | 360 | 10.0 | 17.0 | 0.00 | 0.00 | 0.00 | 42 | 923.6 |
| 20260831024017 | 56 | 360 | 12.0 | 19.0 | 0.00 | 0.00 | 0.00 | 41 | 923.4 |
| 20260831023521 | 57 | 360 | 11.0 | 19.0 | 0.00 | 0.00 | 0.00 | 41 | 923.5 |
| 20260831023055 | 57 | 360 | 13.0 | 20.0 | 0.00 | 0.00 | 0.00 | 40 | 923.5 |
| 20260831022516 | 57 | 360 | 13.0 | 20.0 | 0.00 | 0.00 | 0.00 | 40 | 923.4 |
| 20260831022018 | 57 | 360 | 10.0 | 21.0 | 0.00 | 0.00 | 0.00 | 39 | 923.4 |
| 20260831021600 | 57 | 360 | 14.0 | 21.0 | 0.00 | 0.00 | 0.00 | 39 | 923.1 |
| 20260831021018 | 58 | 360 | 13.0 | 23.0 | 0.00 | 0.00 | 0.00 | 39 | 923.2 |
| 20260831020516 | 58 | 360 | 14.0 | 23.0 | 0.00 | 0.00 | 0.00 | 39 | 923.2 |
| 20260831015517 | 58 | 360 | 15.0 | 26.0 | 0.00 | 0.00 | 0.00 | 38 | 923.0 |
| 20260831015015 | 58 | 360 | 15.0 | 25.0 | 0.00 | 0.00 | 0.00 | 38 | 923.1 |
| 20260831014603 | 59 | 360 | 16.0 | 25.0 | 0.00 | 0.00 | 0.00 | 37 | 923.1 |
| 20260831014017 | 59 | 360 | 16.0 | 23.0 | 0.00 | 0.00 | 0.00 | 37 | 923.3 |
| 20260831013522 | 60 | 360 | 14.0 | 25.0 | 0.00 | 0.00 | 0.00 | 36 | 923.1 |
| 20260831013055 | 60 | 360 | 17.0 | 26.0 | 0.00 | 0.00 | 0.00 | 35 | 923.3 |
| 20260831012518 | 60 | 360 | 16.0 | 26.0 | 0.00 | 0.00 | 0.00 | 35 | 923.2 |
| 20260831012018 | 60 | 360 | 15.0 | 25.0 | 0.00 | 0.00 | 0.00 | 35 | 923.4 |
| 20260831011604 | 60 | 360 | 15.0 | 25.0 | 0.00 | 0.00 | 0.00 | 35 | 923.0 |
| 20260831011019 | 60 | 360 | 12.0 | 29.0 | 0.00 | 0.00 | 0.00 | 36 | 923.1 |
| 20260831010516 | 60 | 360 | 17.0 | 29.0 | 0.00 | 0.00 | 0.00 | 35 | 923.0 |
| 20260831010055 | 60 | 360 | 19.0 | 26.0 | 0.00 | 0.00 | 0.00 | 35 | 922.8 |
| 20260831005517 | 60 | 360 | 18.0 | 26.0 | 0.00 | 0.00 | 0.00 | 35 | 922.9 |
| 20260831005021 | 61 | 360 | 15.0 | 26.0 | 0.00 | 0.00 | 0.00 | 34 | 923.0 |
| 20260831004554 | 61 | 360 | 16.0 | 29.0 | 0.00 | 0.00 | 0.00 | 34 | 922.9 |
| 20260831004020 | 61 | 360 | 17.0 | 29.0 | 0.00 | 0.00 | 0.00 | 33 | 922.9 |
| 20260831003520 | 61 | 360 | 17.0 | 31.0 | 0.00 | 0.00 | 0.00 | 33 | 922.9 |
| 20260831003104 | 61 | 360 | 19.0 | 31.0 | 0.00 | 0.00 | 0.00 | 33 | 922.9 |
| 20260831002518 | 62 | 360 | 20.0 | 31.0 | 0.00 | 0.00 | 0.00 | 33 | 923.0 |
| 20260831002018 | 62 | 360 | 18.0 | 27.0 | 0.00 | 0.00 | 0.00 | 33 | 922.8 |
| 20260831001608 | 62 | 360 | 16.0 | 32.0 | 0.00 | 0.00 | 0.00 | 33 | 922.9 |
| 20260831001017 | 62 | 360 | 20.0 | 32.0 | 0.00 | 0.00 | 0.00 | 33 | 922.9 |
| 20260831000520 | 62 | 360 | 16.0 | 30.0 | 0.00 | 0.00 | 0.00 | 33 | 922.9 |
| 20260831000059 | 62 | 360 | 19.0 | 30.0 | 0.00 | 0.00 | 0.00 | 33 | 922.9 |
| 20260830235517 | 62 | 360 | 21.0 | 29.0 | 0.00 | 0.00 | 0.00 | 33 | 922.9 |
| 20260830235016 | 63 | 360 | 14.0 | 32.0 | 0.00 | 0.00 | 0.00 | 34 | 923.1 |
| 20260830234605 | 63 | 360 | 20.0 | 32.0 | 0.00 | 0.00 | 0.00 | 33 | 922.7 |
| 20260830234017 | 62 | 360 | 18.0 | 29.0 | 0.00 | 0.00 | 0.00 | 35 | 923.1 |
| 20260830233517 | 61 | 360 | 18.0 | 32.0 | 0.00 | 0.00 | 0.00 | 35 | 923.1 |
| 20260830233101 | 62 | 360 | 20.0 | 35.0 | 0.00 | 0.00 | 0.00 | 34 | 923.1 |
| 20260830232519 | 62 | 360 | 22.0 | 35.0 | 0.00 | 0.00 | 0.00 | 34 | 923.1 |
| 20260830232023 | 61 | 360 | 19.0 | 31.0 | 0.00 | 0.00 | 0.00 | 35 | 923.1 |
| 20260830231559 | 61 | 360 | 22.0 | 31.0 | 0.00 | 0.00 | 0.00 | 35 | 922.9 |
| 20260830231016 | 62 | 360 | 20.0 | 31.0 | 0.00 | 0.00 | 0.00 | 34 | 923.0 |
| 20260830230518 | 61 | 360 | 19.0 | 31.0 | 0.00 | 0.00 | 0.00 | 35 | 922.9 |
| 20260830230106 | 61 | 360 | 19.0 | 33.0 | 0.00 | 0.00 | 0.00 | 35 | 923.4 |
| 20260830225516 | 62 | 360 | 21.0 | 33.0 | 0.00 | 0.01 | 0.00 | 33 | 923.2 |
| 20260830225016 | 63 | 360 | 20.0 | 31.0 | 0.00 | 0.01 | 0.00 | 33 | 923.1 |
| 20260830224559 | 63 | 360 | 20.0 | 31.0 | 0.00 | 0.01 | 0.00 | 32 | 923.2 |
| 20260830224017 | 63 | 360 | 21.0 | 33.0 | 0.00 | 0.01 | 0.00 | 33 | 923.0 |
| 20260830223521 | 63 | 360 | 22.0 | 33.0 | 0.00 | 0.01 | 0.00 | 33 | 923.1 |
| 20260830223104 | 63 | 360 | 20.0 | 35.0 | 0.00 | 0.01 | 0.00 | 33 | 922.9 |
| 20260830222518 | 63 | 360 | 24.0 | 35.0 | 0.00 | 0.01 | 0.00 | 33 | 922.9 |
| 20260830222020 | 63 | 360 | 20.0 | 33.0 | 0.00 | 0.01 | 0.00 | 32 | 923.0 |
| 20260830221558 | 64 | 360 | 20.0 | 31.0 | 0.00 | 0.01 | 0.00 | 32 | 923.2 |
| 20260830221017 | 63 | 360 | 18.0 | 33.0 | 0.00 | 0.01 | 0.00 | 33 | 923.2 |
| 20260830220516 | 62 | 360 | 20.0 | 33.0 | 0.00 | 0.01 | 0.00 | 34 | 923.1 |
| 20260830220125 | 62 | 360 | 20.0 | 31.0 | 0.00 | 0.01 | 0.00 | 34 | 923.2 |
| 20260830215521 | 63 | 360 | 20.0 | 30.0 | 0.00 | 0.21 | 0.00 | 32 | 923.2 |
| 20260830215021 | 63 | 360 | 18.0 | 34.0 | 0.00 | 0.21 | 0.00 | 34 | 923.1 |
| 20260830214626 | 61 | 360 | 20.0 | 34.0 | 0.00 | 0.21 | 0.00 | 35 | 923.1 |